Simultaneous Nadir Overpasses (SNOs) Predictions

Prediction of SNOs between GOES-16 and LANDSAT-8 Satellite Orbit:

Table of predicted SNOs for the next 14.0 days since TLE Epoch: 12/2/2023
Index Date Time (GOES-16) GOES-16 Lat,Lon LANDSAT-8 Lat,Lon Distance(km) Time Diff (sec)
1 12/03/2023 02:57:36 0.04, -75.20 0.78, -71.72 395.25 80
2 12/03/2023 15:18:51 -0.03, -75.23 0.31, -76.88 187.14 80
3 12/05/2023 15:09:17 -0.03, -75.25 -0.33, -73.91 152.38 80
4 12/06/2023 03:30:40 0.03, -75.23 -0.80, -79.09 439.94 80
5 12/07/2023 14:57:02 -0.03, -75.27 -0.93, -70.94 492.72 80
6 12/08/2023 03:18:25 0.03, -75.25 -0.19, -76.12 99.51 80
7 12/10/2023 03:03:30 0.02, -75.28 0.46, -73.15 241.57 80
8 12/10/2023 15:24:45 -0.02, -75.31 0.60, -78.31 340.51 80
9 12/12/2023 15:15:09 -0.02, -75.34 -0.02, -75.33 1.10 80
10 12/14/2023 15:02:52 -0.01, -75.37 -0.62, -72.35 342.82 80
11 12/15/2023 03:24:15 0.00, -75.35 -0.46, -77.54 248.74 80
